Location: Innertal
(47.1057°N, 8.9201°E)
Time: 13:10:03
(UTC+00:00)

Daily predictions for brighter satellites

Satellite Brightness Start Highest point End
(mag) Time Altitude Azimuth Time Altitude Azimuth Time Altitude Azimuth
Nadezhda 4 Rocket 4.3 19:26:02 10° SSE 19:31:52 46° E 19:37:47 10° NNE
Landsat 7 4.1 19:33:25 10° SSE 19:38:02 53° ENE 19:42:40 10° N
ISS -3.7 19:35:55 10° WNW 19:39:18 79° NNE 19:42:41 10° ESE
SPOT 3 Rocket 3.9 19:34:43 10° SE 19:39:46 51° ENE 19:44:49 10° N
Cosmos 1825 3.5 19:36:50 10° SSW 19:40:25 43° WNW 19:44:03 10° N
IGS 5A 3.6 19:37:08 10° SSE 19:41:13 61° ENE 19:45:19 10° N
BREEZE-M DEB (TANK) 3.7 19:30:02 10° W 19:43:22 76° N 19:47:02 10° ENE
Cosmos 1980 Rocket 2.3 19:38:45 10° NNW 19:44:24 85° WSW 19:50:03 10° SSE
Cosmos 2369 4.1 19:39:07 10° NNW 19:44:42 64° WSW 19:50:16 10° SSE
Cosmos 2058 3.5 19:41:04 10° SSW 19:45:12 64° W 19:49:25 10° N
MetOp-B 4.5 19:41:02 10° SE 19:46:12 51° ENE 19:51:23 10° N
Cosmos 2221 2.9 19:45:17 10° NNW 19:49:34 65° W 19:53:51 10° S
ERBS 4.3 19:48:08 10° W 19:50:36 20° SW 19:53:04 10° S
RESURS DK-1 2.4 19:46:37 10° SSW 19:50:47 87° WNW 19:54:58 10° NNE
USA 245 4.4 19:48:14 10° SE 19:52:56 39° ENE 19:56:49 10° N
COSMOS 2406 4.2 19:48:39 10° SW 19:54:12 53° WNW 19:59:48 10° NNE
BREEZE-M DEB (TANK) 3.4 19:51:05 10° SW 19:54:27 51° SE 20:05:06 10° ENE
Cosmos 2322 Rocket 3.3 19:49:57 10° NNW 19:54:59 32° NE 19:59:57 10° ESE
Cosmos 304 Rocket 4.1 19:55:00 10° NNW 19:59:42 51° ENE 20:03:55 12° SE
BREEZE-M DEB (TANK) 3.4 19:57:13 10° WNW 20:00:17 77° SSW 20:09:24 10° ESE
Cosmos 1933 3.8 19:57:11 10° N 20:01:05 43° ENE 20:04:32 12° SSE
Cosmos 1538 Rocket 4.0 19:56:24 10° S 20:01:33 67° ESE 20:06:43 10° NNE
Resurs 01 Rocket 1.7 19:59:26 10° S 20:03:52 80° WSW 20:08:21 10° NNW
ERS-2 2.4 20:01:53 10° N 20:05:33 73° WNW 20:09:10 10° SSW
Cosmos 2151 3.1 20:01:51 10° S 20:05:59 55° E 20:10:09 10° NNE
Cosmos 2098 Rocket 2.4 20:04:11 10° S 20:07:16 85° W 20:10:56 10° N
Gbstr 26 Del rocket 2.8 20:05:42 10° WNW 20:09:25 71° NNE 20:12:56 13° ESE
Meteor 2-3 Rocket 4.0 20:05:42 10° SSE 20:11:09 52° E 20:16:42 10° NNE
CARTOSAT-1 4.1 20:09:29 14° SE 20:12:56 44° ENE 20:17:04 10° N
Cosmos 2219 Rocket 4.3 20:12:43 10° N 20:15:57 15° NE 20:19:09 10° ENE
Ariane Rocket 4.1 20:13:34 10° S 20:18:23 42° W 20:23:12 10° NNW
SL-16 R/B 2.4 20:18:08 10° NNW 20:23:45 61° ENE 20:28:03 17° SE
Cosmos 1782 3.1 20:23:37 10° N 20:27:33 50° ENE 20:30:03 20° SE
Cosmos 371 Rocket 4.0 20:23:39 10° NNW 20:28:19 51° WSW 20:32:51 11° S
ARIANE 5 R/B 2.9 20:26:51 18° SE 20:30:01 56° ENE 20:34:24 10° N
Cosmos 1271 Rocket 2.7 20:30:08 10° N 20:34:09 82° ENE 20:36:55 19° SSE
SPOT 1/Viking Rocket 3.8 20:31:18 11° S 20:36:13 71° WSW 20:41:27 10° NNW
USA 276 2.0 20:33:55 10° WNW 20:37:04 78° SSW 20:38:32 28° ESE
BREEZE-M DEB (TANK) 2.8 20:35:02 10° WNW 20:38:07 57° SSW 20:43:14 18° SE
Cosmos 2195 Rocket 4.4 20:32:10 10° S 20:38:18 82° E 20:44:25 10° N
Cosmos 1766 Rocket 3.9 20:37:42 20° SSE 20:40:24 46° E 20:44:36 10° NNE
Cosmos 1151 Rocket 3.2 20:36:52 10° N 20:41:10 57° ENE 20:43:40 24° SSE
ATLAS 5 CENTAUR R/B 4.2 20:38:34 10° NNW 20:42:23 20° NNE 20:46:40 10° ENE
Cosmos 1328 Rocket 4.0 20:41:04 10° N 20:45:24 48° ENE 20:47:40 25° SE
ATLAS 2AS CENTAUR R/B 4.2 20:38:05 10° WSW 20:45:38 47° NW 20:52:58 10° NE
Cosmos 923 Rocket 4.0 20:42:37 10° SSW 20:47:55 75° ESE 20:53:17 10° NNE
Terra 2.1 20:47:56 24° SE 20:50:36 53° ENE 20:55:15 10° N
ATLAS 3B R/B 3.6 20:44:11 10° NW 20:50:53 45° WSW 20:56:42 15° S
SPOT 5 2.5 20:50:48 25° SSE 20:53:16 77° ENE 20:57:40 10° N
USA 267 3.9 20:48:36 10° ENE 20:54:12 30° SE 20:59:02 13° S
Cosmos 1092 Rocket 4.3 20:50:10 10° SSW 20:56:24 72° W 21:02:45 10° N
Cosmos 2082 Rocket 4.0 20:51:38 10° WSW 20:56:43 34° NW 21:01:52 10° NNE
Cosmos 2056 Rocket 3.8 20:54:00 10° NNW 20:59:19 59° ENE 21:02:09 27° SE
NOSS 2-1 (C) 3.6 21:00:50 33° ESE 21:00:50 33° ESE 21:03:26 10° NE
BREEZE-M DEB (TANK) 2.3 21:00:39 10° W 21:02:47 49° N 21:03:12 39° NE
ERS-1 Rocket 2.9 21:00:35 24° SSE 21:03:41 86° WSW 21:08:45 10° NNW
SL-27 R/B 3.2 21:06:23 35° ESE 21:06:29 35° ESE 21:09:47 10° NE
Meteor 2-21 4.5 21:02:38 21° S 21:06:54 66° E 21:13:01 10° NNE
Cosmos 2360 Rocket 2.4 21:01:33 10° NNW 21:07:08 61° ENE 21:10:08 27° SE
NOSS 2-1 (D) 3.2 21:08:18 42° ESE 21:08:18 42° ESE 21:11:13 10° NE
Cosmos 2026 Rocket 4.3 21:03:04 10° SSW 21:09:24 71° W 21:15:40 10° N
GP-B 3.8 21:08:30 10° N 21:12:50 52° W 21:16:14 16° SSW
ISS -2.0 21:13:13 10° W 21:15:49 21° SW 21:15:56 21° SW
Cosmos 2333 Rocket 3.1 21:12:20 10° NNW 21:17:38 39° NE 21:20:38 23° ESE
Spot 2 Rocket 4.3 21:14:48 18° SSW 21:18:24 46° W 21:23:20 10° NNW
Meteor 1-10 Rocket 4.2 21:14:46 10° N 21:20:19 67° ENE 21:22:51 32° SSE
Cosmos 1371 Rocket 4.0 21:15:26 10° NNW 21:20:51 85° WSW 21:23:22 33° SSE
Cosmos 1812 2.7 21:17:57 10° NNW 21:21:50 79° W 21:23:04 42° S
Cosmos 2112 Rocket 4.0 21:17:49 13° SSW 21:22:34 87° WNW 21:27:53 10° NNE
Cosmos 1680 Rocket 3.7 21:17:48 10° SSW 21:23:05 75° WNW 21:28:22 10° NNE
Cosmos 1500 Rocket 4.2 21:22:34 34° ESE 21:23:19 36° E 21:27:22 10° NNE
Cosmos 220 Rocket 4.1 21:19:55 10° NNW 21:24:15 67° WSW 21:25:50 37° S
Okean 3 Rocket 4.0 21:24:58 20° SSW 21:27:57 61° WNW 21:32:26 10° N
Cosmos 2322 4.4 21:22:31 10° NNW 21:28:00 44° NE 21:30:49 26° ESE
USA 234 3.9 21:22:53 10° E 21:29:11 52° NNE 21:35:30 10° NW
Cosmos 292 Rocket 3.8 21:27:19 10° NNW 21:32:05 67° ENE 21:33:40 41° SE
Cosmos 2237 Rocket 4.3 21:33:54 10° N 21:37:52 19° NE 21:41:50 10° E
Meteor 2-16 Rocket 4.4 21:35:24 31° S 21:38:26 73° E 21:44:31 10° NNE
Cosmos 2322 Rocket 2.7 21:33:50 10° NW 21:39:15 49° WSW 21:41:46 29° SSW
Cosmos 1408 Rocket 3.5 21:40:12 39° SSW 21:41:47 81° W 21:46:09 10° N
Cosmos 1743 Rocket 3.7 21:42:22 48° SE 21:43:09 57° E 21:47:31 10° NNE
Cosmos 2285 Rocket 4.5 21:38:43 10° NNW 21:44:52 51° ENE 21:47:42 30° ESE
Cosmos 2315 Rocket 4.2 21:43:30 10° N 21:49:46 62° ENE 21:52:17 37° SE
Sich 1 4.0 21:51:50 31° E 21:51:52 31° E 21:55:44 10° NNE
Cosmos 2084 3.6 21:48:52 16° SW 21:52:05 68° NW 21:56:16 10° NE
Gbstr 26 Del rocket 4.2 21:52:40 10° W 21:55:26 26° SW 21:55:26 26° SW
Cosmos 2266 Rocket 3.9 21:53:29 34° S 21:56:21 86° E 22:02:36 10° N
Cosmos 1862 4.3 21:57:03 27° SW 21:58:41 41° WNW 22:02:28 10° N
Cosmos 1048 Rocket 4.4 21:59:25 39° ESE 21:59:47 40° ESE 22:04:33 10° NE
Cosmos 2219 Rocket 2.3 21:55:29 10° NNW 22:01:04 65° ENE 22:02:58 40° SE
Cosmos 2228 Rocket 3.0 22:01:03 10° N 22:05:28 75° E 22:06:05 63° SE
Cosmos 1515 Rocket 4.3 22:01:18 10° NNW 22:05:32 44° W 22:06:43 36° SW
H-2A R/B 4.0 22:01:42 10° N 22:05:49 56° WNW 22:07:14 36° SW
NOSS 2-1 (E) 3.6 22:05:22 39° W 22:06:12 51° NW 22:09:37 10° NNE
SL-16 R/B 3.9 22:03:01 10° NW 22:07:25 23° WSW 22:09:55 17° SW
NOSS 3-1 (C) 4.0 22:02:52 10° NW 22:10:21 85° SW 22:14:30 35° SSE
Cosmos 2333 4.1 22:05:01 10° NNW 22:10:38 79° WSW 22:12:13 49° S
COSMOS 2455 2.8 22:09:10 43° S 22:11:03 64° ESE 22:17:01 10° NE
Cosmos 1420 Rocket 4.4 22:07:06 10° NNW 22:12:17 53° WSW 22:13:43 41° SSW
COSMOS 2428 2.8 22:10:06 10° NNW 22:15:49 69° ENE 22:17:35 44° SE
Cosmos 1655 Rocket 4.3 22:12:44 27° SSW 22:16:18 63° WNW 22:22:40 10° N
Cosmos 1515 4.1 22:17:21 10° N 22:20:48 51° ENE 22:20:48 51° ENE
Spot 4 3.7 22:21:45 61° SSE 22:22:35 84° ENE 22:27:27 10° NNW
USA 229 DEB 3.9 22:17:14 10° NW 22:24:34 80° NE 22:28:16 34° SE
USA 229 3.9 22:17:20 10° NW 22:24:40 79° NE 22:28:23 34° SE
ATLAS 5 CENTAUR R/B 2.6 22:22:32 10° NW 22:27:57 62° NE 22:30:39 34° ESE
Terra 3.7 22:26:49 16° WSW 22:28:40 20° W 22:32:09 10° NW
COSMOS 2487 3.1 22:31:49 51° N 22:31:49 51° N 22:34:31 10° NNE
Cosmos 1452 Rocket 3.5 22:26:37 10° NNW 22:31:51 69° WSW 22:32:49 56° SSW
Cosmos 1707 Rocket 3.6 22:27:46 10° N 22:32:07 64° E 22:32:18 63° E
ALOS 2 2.7 22:33:57 61° E 22:34:17 64° ENE 22:38:38 10° N
USA 267 3.2 22:31:10 10° NE 22:37:45 90° WSW 22:44:19 10° SW
Meteor 1-27 Rocket 4.5 22:37:13 10° NNW 22:42:32 44° W 22:44:14 34° SW
Cosmos 1666 4.5 22:44:25 23° ENE 22:44:25 23° ENE 22:46:50 10° NE
NOSS 3-1 (A) 4.0 22:37:33 10° NW 22:45:03 84° SW 22:48:48 38° SSE
SL-08 ROCKET BODY 4.5 22:44:13 50° SSE 22:45:39 65° E 22:51:44 10° NNE
Cosmos 1805 Rocket 4.1 22:49:13 47° WSW 22:49:51 51° WNW 22:54:12 10° N
Cosmos 2360 Rocket 3.7 22:46:21 10° NW 22:50:40 23° WSW 22:51:53 21° WSW
Nadezhda 2 Rocket 4.5 22:49:09 48° S 22:51:05 89° WNW 22:57:32 10° N
Meteor 1-20 Rocket 4.3 22:54:51 48° SW 22:56:21 70° WNW 23:02:04 10° N
Cosmos 1110 Rocket 3.9 22:52:35 10° NNW 22:57:57 78° WSW 22:58:40 65° S
Cosmos 1980 4.0 22:54:03 10° NNW 22:59:41 61° ENE 23:01:19 43° ESE
Cosmos 2333 Rocket 2.9 22:56:42 10° NW 23:01:53 38° WSW 23:02:38 36° SW
Cosmos 1331 Rocket 3.8 22:58:06 10° NNW 23:03:22 78° WSW 23:03:58 68° SSW
Cosmos 1244 Rocket 4.5 23:03:47 48° SSW 23:05:34 76° W 23:11:48 10° N
USA 234 3.2 23:10:02 46° SSE 23:12:04 70° SW 23:18:38 10° NW
Nimbus 7 Rocket 4.4 23:06:41 10° NNE 23:12:44 75° ESE 23:14:02 56° S
Cosmos 1340 Rocket 4.1 23:13:35 31° ENE 23:13:35 31° ENE 23:16:26 10° NNE
NOSS 0 Rocket 3.9 23:08:23 10° NNW 23:14:38 77° WSW 23:16:01 56° S
Cosmos 2297 Rocket 2.5 23:17:11 48° SE 23:17:37 49° ESE 23:23:04 10° NE
Okean 1-7 3.9 23:14:45 10° N 23:18:45 37° ENE 23:18:54 37° E
Lacrosse 5 2.5 23:21:59 40° ESE 23:21:59 40° ESE 23:25:52 10° ENE
Cosmos 2237 Rocket 2.1 23:17:07 10° NNW 23:22:49 84° ENE 23:24:02 57° SE
Cosmos 2084 Rocket 3.5 23:20:07 10° NW 23:24:07 78° N 23:24:07 78° N
Cosmos 2242 Rocket 4.2 23:20:38 10° N 23:24:53 45° ENE 23:25:08 44° E
NOSS 2-2 (E) 4.4 23:20:16 10° NW 23:25:39 82° NE 23:28:32 38° SE
Meteor 1-18 Rocket 4.4 23:20:07 10° NNW 23:25:54 60° W 23:26:57 52° SW
Cosmos 1500 3.9 23:26:57 49° NW 23:26:57 49° NW 23:30:19 10° N
Cosmos 1470 Rocket 3.5 23:29:03 82° NNE 23:29:03 82° NNE 23:33:13 10° N
Cosmos 2227 Rocket 2.6 23:28:53 45° ESE 23:29:19 46° ESE 23:34:42 10° NE
Cosmos 1633 Rocket 3.6 23:33:06 47° W 23:33:16 48° WNW 23:37:30 10° N
Cosmos 1933 Rocket 3.6 23:35:34 69° E 23:35:34 69° E 23:39:57 10° NNE
Meteor 1-11 Rocket 4.1 23:41:19 44° SE 23:42:14 49° E 23:47:33 10° NNE
Cosmos 2219 Rocket 3.7 23:40:23 10° NW 23:44:29 21° W 23:44:40 21° WSW
Cosmos 2263 Rocket 4.4 23:46:36 11° ESE 23:47:53 12° E 23:50:04 10° ENE
NOSS 2-2 (C) 4.3 23:44:32 10° NW 23:49:51 86° SW 23:52:23 42° SE
SL-16 R/B 2.8 23:44:35 10° NNW 23:50:08 52° ENE 23:52:42 30° ESE
Cosmos 1992 Rocket 4.3 23:45:34 10° NNW 23:50:47 62° ENE 23:52:05 47° ESE
Cosmos 1269 Rocket 3.9 23:50:05 64° SW 23:50:53 82° WNW 23:56:12 10° NNE
PSLV R/B 3.6 23:47:03 10° NNE 23:51:51 89° WNW 23:52:12 78° SSW
Resurs 1-4 Rocket 3.9 23:49:58 10° NE 23:53:46 19° E 23:55:14 18° ESE
